Theta_e
313 313 313 313 314 318 322 325 323 321 321 315 316 318 316 318 319 320 319 319 320 320 319 320 319 319 320 320 320 320 320 320 320 320 321 323 320 318 319 318 318 319 318 326 334 331 332 335 335 338 339 340 340 340 340 340 339 337 335 334 333 332 331 329 325 322 319 316 315 315 316 316 318 325 327 327 329 330 330 329 329 330 331 332 333 332 330 328 327 327 325 324 323 323 322 323 323
313 313 314 316 318 323 326 326 322 318 318 314 315 317 316 319 319 319 319 319 320 319 319 319 319 319 320 319 320 321 320 320 320 320 321 322 324 320 318 319 318 319 318 326 334 330 333 338 335 336 338 340 339 339 340 339 339 337 335 335 334 333 331 329 325 319 318 316 316 316 317 318 318 321 325 326 328 329 329 329 329 331 333 334 334 333 331 329 327 325 323 323 322 321 320 319 319
315 316 317 321 323 325 326 324 320 316 315 314 315 317 318 319 318 318 318 319 319 319 319 319 320 319 320 321 320 321 320 320 320 321 322 322 325 321 317 319 318 319 319 326 335 330 333 338 335 335 337 339 338 337 339 338 338 337 335 335 334 332 331 329 325 318 317 316 316 317 318 319 320 321 323 326 328 328 329 329 329 330 332 335 335 333 331 328 326 324 324 325 325 324 323 322 321
318 318 319 323 325 324 325 323 321 317 315 314 314 317 319 318 317 318 318 319 319 318 320 320 320 319 320 321 320 321 320 321 320 321 323 320 320 319 317 319 318 318 319 325 334 333 334 337 334 334 336 339 338 337 339 338 337 336 334 334 334 332 331 330 325 318 316 316 317 318 319 320 321 322 324 326 327 328 329 328 329 330 332 335 335 334 332 330 329 328 328 327 326 325 324 324 323
318 319 319 322 327 324 324 322 320 318 316 316 315 317 319 318 317 318 319 319 319 319 319 320 320 319 319 320 320 321 320 320 321 321 322 320 318 317 317 318 319 319 320 324 334 337 334 333 333 333 336 337 337 336 338 337 337 336 334 333 332 331 330 330 327 319 316 316 318 319 319 323 326 326 326 326 326 327 327 327 328 330 333 335 335 335 333 332 330 327 326 324 322 320 318 317 316
319 320 319 321 325 323 322 319 318 318 318 320 317 317 318 318 318 318 319 319 319 318 318 319 319 319 319 319 319 319 318 319 321 321 320 320 318 317 317 318 319 319 321 324 334 339 333 331 332 333 335 336 337 336 337 336 336 335 334 333 331 331 330 331 329 320 316 317 319 322 324 329 331 328 327 328 328 327 327 328 329 329 332 334 335 335 333 332 328 324 321 317 315 312 309 308 308
319 322 323 322 323 322 323 319 318 319 319 321 318 318 318 318 318 318 319 318 318 317 317 318 318 319 318 318 319 318 317 317 318 319 319 319 319 317 316 318 319 319 321 326 335 337 330 329 331 333 335 335 336 336 336 335 335 336 334 333 330 330 330 332 331 322 317 318 322 327 328 330 331 329 328 329 330 329 329 330 331 331 331 333 335 334 332 332 328 321 317 314 312 308 305 305 306
317 321 323 324 324 322 322 319 319 321 319 320 319 319 318 318 318 318 318 318 318 318 318 318 318 318 317 318 320 318 316 316 316 316 317 319 318 316 316 317 318 319 321 326 334 334 326 327 330 332 335 335 335 336 337 335 335 335 334 333 330 329 330 332 333 326 320 323 326 328 330 329 329 329 327 329 330 331 331 331 332 332 331 333 334 332 331 331 326 318 316 315 313 308 305 305 305
318 320 322 324 323 320 320 319 320 320 319 319 319 318 318 318 318 318 318 318 318 318 318 317 318 317 317 318 320 318 315 315 315 315 316 316 317 316 316 316 317 318 319 322 331 333 325 325 329 331 334 334 334 335 336 335 334 334 333 332 329 328 330 331 334 330 323 326 328 328 330 328 328 329 327 328 329 331 332 332 332 333 332 332 332 330 328 327 322 318 318 318 314 308 304 304 304
321 320 321 323 321 318 317 318 319 320 319 319 319 318 318 318 318 318 318 318 318 318 317 316 318 317 317 319 319 317 314 314 314 315 315 315 316 315 315 316 316 317 318 318 325 330 324 323 328 329 331 333 333 333 334 334 334 333 332 331 328 327 329 331 333 331 325 325 327 328 329 328 328 329 329 328 327 329 332 332 333 333 332 330 330 328 325 322 320 321 322 321 316 309 304 304 304
322 319 319 321 318 316 316 317 319 320 319 319 319 318 318 317 318 318 318 318 318 318 317 316 318 317 317 318 318 316 314 314 314 314 315 315 315 315 315 315 316 315 317 318 318 323 320 321 325 327 329 331 332 333 333 334 334 334 333 331 329 327 327 330 331 331 327 326 327 327 328 329 329 330 330 329 328 329 331 333 333 334 333 330 329 327 326 324 323 324 325 324 317 309 305 304 304
321 319 318 318 317 317 318 318 319 320 319 318 318 318 317 317 318 318 318 318 318 318 317 317 317 317 318 319 318 316 315 315 314 314 314 314 315 315 316 315 315 315 316 317 317 319 318 319 322 324 328 329 331 332 333 334 334 335 334 332 330 327 327 328 330 330 328 327 326 326 327 329 330 330 330 329 329 329 331 334 333 334 333 331 330 329 329 328 328 327 327 325 317 310 305 303 304
320 319 318 317 318 318 317 318 319 319 319 319 318 317 316 317 318 318 318 318 318 318 317 316 317 317 318 318 318 316 315 314 314 314 314 314 314 314 315 315 315 315 315 316 317 318 317 317 319 322 325 327 329 330 331 332 333 334 334 333 331 329 328 327 328 330 329 328 327 325 326 329 329 329 330 329 329 328 330 333 334 334 333 332 331 331 331 330 330 329 328 325 316 310 305 303 304
320 319 319 319 318 318 317 318 319 318 318 318 318 317 316 317 317 317 317 318 318 317 316 315 316 317 317 317 317 316 315 314 314 314 314 314 314 314 314 315 315 315 315 315 316 316 316 316 317 320 322 325 329 331 330 330 332 333 333 333 332 331 330 328 328 329 329 329 328 326 324 326 327 327 328 329 329 329 329 330 332 333 333 332 331 331 331 330 330 328 328 323 315 310 305 303 304
319 320 319 318 317 316 317 319 318 317 318 318 317 317 317 317 316 316 317 317 317 316 316 316 316 316 316 317 317 316 314 314 314 314 314 314 314 314 315 315 316 315 315 315 316 316 316 316 316 317 319 322 327 332 331 330 331 331 332 332 332 331 331 331 329 328 328 329 328 327 325 323 324 327 328 328 329 329 328 328 329 331 331 331 329 329 328 328 328 327 326 322 315 310 305 303 303
316 319 319 317 316 316 316 318 318 317 318 318 317 317 318 317 316 316 317 316 317 317 316 317 316 316 316 316 315 314 314 314 314 314 314 314 314 314 314 316 316 316 316 315 315 315 316 316 316 316 317 318 324 330 331 332 332 330 330 331 333 332 331 331 330 328 327 328 328 328 327 324 324 326 327 328 329 329 329 329 328 327 328 327 325 325 325 325 325 325 325 322 316 312 305 303 303
315 319 319 317 316 316 316 318 317 317 318 318 317 317 318 318 317 316 316 315 316 317 316 316 315 315 314 314 314 314 314 314 313 314 314 313 315 315 314 315 316 316 316 316 315 315 315 316 316 316 316 316 323 331 332 333 334 331 330 329 332 333 331 331 330 329 327 327 328 328 328 326 326 326 327 328 329 329 330 330 329 328 327 325 325 325 324 324 323 323 323 321 317 312 307 303 303
319 322 318 316 317 316 316 318 319 319 319 318 318 317 318 318 318 317 316 316 317 317 316 315 314 314 313 313 313 313 313 314 313 314 314 313 314 315 314 314 315 315 316 316 315 315 315 315 316 316 317 316 320 327 329 331 333 332 332 330 330 331 330 330 330 331 329 328 327 327 328 328 328 329 329 328 329 330 330 331 331 330 328 327 327 327 326 325 324 322 321 319 317 313 308 304 303
319 320 317 317 318 316 317 318 319 319 319 318 318 317 317 317 317 316 316 317 317 318 317 315 314 314 314 313 312 313 313 313 313 313 314 313 313 314 314 314 314 314 314 315 316 316 315 315 315 315 317 317 317 320 323 326 329 330 331 332 331 330 330 329 330 332 331 330 329 328 328 329 329 330 330 329 329 329 330 331 331 330 329 329 328 327 327 326 323 321 319 317 316 313 309 305 303
320 319 318 319 317 316 316 317 318 318 318 318 318 316 316 317 316 316 316 317 318 317 317 316 316 315 314 313 312 312 312 313 313 313 313 313 313 314 314 314 314 314 314 314 315 315 316 315 315 315 315 316 316 320 324 327 329 329 328 331 332 332 332 331 330 332 331 331 331 330 329 330 329 329 330 330 329 329 329 330 330 329 329 329 329 328 327 326 322 320 319 318 318 315 312 309 306
320 318 319 318 316 317 316 317 318 317 317 317 317 316 316 317 315 316 316 317 317 317 314 314 315 314 313 312 311 312 313 313 313 313 314 314 314 314 314 314 314 314 313 314 314 314 315 315 315 315 315 316 316 321 327 329 330 329 329 332 333 333 333 332 331 331 331 332 332 330 330 330 328 329 330 329 329 329 329 330 329 328 327 328 329 328 328 326 323 323 323 322 322 320 318 317 313
318 318 318 318 317 318 317 317 317 316 316 316 317 316 316 316 315 315 316 316 317 315 312 312 312 311 311 311 311 312 312 313 313 314 314 314 315 315 315 315 314 314 314 314 314 314 314 315 316 316 315 316 316 320 327 330 331 330 331 332 333 334 333 332 332 332 331 332 332 331 331 331 329 330 330 329 329 329 329 329 329 328 328 329 328 328 328 327 325 326 325 324 324 323 322 322 319
318 318 318 318 318 318 318 317 316 315 316 316 317 316 315 315 316 315 315 316 315 312 311 311 310 310 310 311 311 312 312 313 313 313 314 314 315 315 315 315 315 315 315 314 314 314 314 314 314 315 315 316 316 319 325 329 330 330 331 331 331 333 332 332 332 332 331 330 332 333 332 332 331 331 331 330 328 329 329 330 329 329 329 328 327 327 328 327 327 327 326 325 324 324 324 323 321
317 318 318 318 317 317 318 317 315 315 315 316 316 315 315 316 316 315 314 313 312 311 310 310 310 310 310 311 311 312 312 312 313 313 314 314 314 314 314 314 314 314 314 314 314 314 314 314 314 314 314 315 317 319 324 329 329 329 331 330 330 331 331 331 331 331 330 330 332 333 332 332 332 331 332 331 328 329 330 330 330 330 328 326 326 328 329 328 327 327 326 325 323 322 322 321 320
317 317 318 317 317 317 317 316 315 315 315 316 314 314 316 316 315 314 314 312 311 310 310 310 310 310 311 311 311 312 312 313 313 313 314 314 314 314 314 314 314 314 314 314 315 315 314 314 314 314 313 314 317 320 324 329 330 329 329 328 329 330 329 330 330 330 330 330 331 333 333 332 331 331 332 331 329 329 329 329 329 330 329 327 327 328 328 328 326 325 323 322 321 321 320 319 318
317 317 317 317 317 317 316 316 316 316 315 315 314 316 316 314 314 314 313 311 310 310 310 310 310 310 311 311 311 312 312 312 312 313 313 314 314 313 313 313 313 314 314 314 315 315 314 314 314 314 313 313 318 323 326 328 330 330 329 327 328 327 328 329 328 328 328 329 331 333 333 332 331 331 331 331 330 329 329 329 329 330 330 329 328 328 328 327 326 324 323 322 321 320 319 318 318
316 316 316 316 317 317 316 316 317 316 315 315 314 317 316 313 313 313 312 310 309 310 311 310 310 311 310 311 311 311 312 312 312 313 313 313 313 313 313 313 313 314 315 315 315 316 315 315 314 313 314 314 321 326 328 328 329 329 328 328 329 328 327 328 329 330 330 329 330 331 330 330 331 331 332 332 330 329 328 329 329 328 329 329 328 328 328 326 325 324 323 323 322 321 320 319 319
315 315 316 317 317 317 317 317 316 315 315 314 314 316 315 312 313 314 311 310 310 311 311 310 311 311 310 310 311 311 311 311 312 313 313 313 313 313 313 313 313 314 315 315 316 316 315 316 315 315 318 320 324 327 327 328 329 327 328 330 332 331 328 328 330 331 330 328 327 327 327 329 329 330 332 333 331 329 329 329 329 329 329 329 328 327 326 325 324 324 323 323 321 320 320 319 319
315 315 316 317 318 317 318 317 315 315 314 313 314 315 314 313 313 313 311 310 311 312 312 311 311 310 310 310 310 310 310 311 312 312 312 312 312 312 312 313 313 313 314 316 317 317 317 317 316 316 320 322 324 326 327 328 329 326 327 330 332 333 330 328 330 330 329 327 326 326 325 327 328 328 330 331 330 329 329 329 329 329 329 328 327 326 325 324 323 323 322 321 320 320 319 319 318
315 315 316 317 318 318 318 316 314 315 314 313 314 315 316 315 313 312 310 311 311 312 312 312 311 310 310 310 309 310 310 311 311 312 312 312 312 311 312 313 313 313 314 316 318 319 317 318 319 319 321 323 323 325 327 328 330 327 325 328 329 329 329 329 330 330 329 328 328 327 325 325 326 327 328 329 329 329 328 328 329 328 328 327 326 325 324 323 322 321 320 320 319 319 319 318 318
316 317 317 317 318 317 316 316 315 315 314 313 314 316 317 315 313 312 310 311 312 313 313 312 311 310 310 310 309 309 310 310 310 311 311 311 311 311 311 312 312 313 314 316 319 321 320 320 321 321 322 325 326 326 327 329 331 328 326 329 329 327 327 329 329 328 326 326 326 325 324 324 325 326 327 328 328 328 328 327 328 327 327 325 324 323 322 321 321 320 319 319 319 319 319 318 318
317 317 317 319 319 318 317 316 316 316 314 313 314 316 318 315 314 313 311 310 312 314 314 312 311 310 310 309 309 309 309 310 310 310 311 310 310 311 312 313 314 315 316 318 319 321 322 320 322 323 323 325 327 329 328 328 328 327 327 328 328 327 326 327 326 325 324 323 323 323 323 323 325 326 327 327 327 328 327 327 327 326 325 324 323 322 321 321 321 320 320 320 319 319 318 318 317
318 317 317 319 319 319 318 316 315 316 315 314 315 317 318 316 314 313 311 311 311 313 314 312 311 310 309 309 309 308 309 309 310 310 310 310 310 310 312 313 315 316 317 318 319 321 323 322 323 325 325 325 326 328 329 328 327 327 327 326 326 325 324 324 324 323 323 322 323 323 323 323 324 325 325 326 326 326 326 326 326 325 323 322 322 322 322 322 321 321 320 319 319 318 317 317 316
319 319 318 319 319 319 318 316 315 315 315 316 316 316 318 316 314 313 311 312 312 313 313 312 311 310 309 309 308 308 308 308 309 310 310 310 310 310 312 314 316 317 317 319 320 321 323 324 323 323 325 326 326 326 326 327 326 326 326 325 325 324 323 323 323 323 323 323 323 323 323 322 323 323 324 324 325 325 324 324 324 323 322 322 322 321 321 321 320 319 318 318 317 316 316 315 315
319 319 319 319 319 318 318 317 316 315 315 317 317 317 318 316 314 313 312 311 313 314 313 312 311 310 309 308 308 308 307 307 309 309 309 309 310 311 312 314 316 317 317 318 319 320 320 322 323 323 324 325 325 324 324 324 325 324 324 324 324 323 322 322 322 321 321 322 322 321 321 321 321 322 322 323 323 323 322 322 322 321 321 320 320 320 319 319 318 318 317 316 315 315 314 313 313
319 320 319 319 319 319 319 318 315 315 316 317 318 318 318 318 315 313 312 311 313 313 312 311 310 309 309 308 308 308 306 307 308 309 309 309 309 311 313 314 316 319 319 319 320 320 320 320 321 322 323 323 323 323 323 323 323 323 323 322 322 321 321 320 319 319 319 319 319 318 318 319 319 319 320 321 321 321 320 320 320 319 319 318 318 318 317 317 316 315 314 313 312 311 311 310 309
319 319 319 319 319 319 320 317 314 315 317 317 318 318 318 319 317 314 312 312 312 313 312 311 311 309 309 308 308 307 306 306 308 308 308 309 309 311 313 313 315 317 317 318 319 319 319 319 320 320 320 320 320 320 320 321 320 321 320 320 320 318 318 317 316 316 316 316 316 315 316 316 316 316 317 317 317 317 317 317 316 316 315 314 314 313 312 311 309 309 308 308 307 307 307 306 306
318 318 318 319 318 319 320 317 314 314 316 317 319 319 318 319 318 314 312 312 313 313 312 312 311 310 309 308 307 306 306 307 308 308 308 308 309 312 313 313 314 315 316 316 317 319 319 319 319 319 318 318 318 318 318 318 318 318 317 317 317 315 315 314 314 313 313 312 312 312 312 311 311 311 310 310 310 310 310 310 310 309 309 308 307 306 305 305 304 304 304 304 304 304 304 304 304
318 317 318 319 319 320 319 316 314 314 315 317 318 318 318 318 317 314 313 313 313 312 312 311 310 309 308 308 307 306 306 306 307 307 308 309 309 311 313 313 314 315 315 316 317 318 318 317 317 316 315 315 316 317 316 316 316 316 315 314 313 312 312 311 310 309 308 307 307 306 306 305 305 305 305 305 305 305 305 305 305 305 304 304 304 303 303 303 303 303 303 303 302 302 301 301 301
318 318 318 319 320 321 320 317 315 314 314 316 317 317 318 318 315 313 313 313 312 310 308 309 308 308 308 307 306 306 306 305 305 306 307 308 309 311 312 313 314 314 315 316 317 317 316 316 316 315 314 314 314 315 314 313 312 313 312 311 310 308 307 307 306 305 305 305 304 304 304 304 304 304 304 303 303 303 303 303 303 303 303 303 302 302 302 301 300 300 299 299 299 298 297 297 297
318 318 318 320 320 320 321 318 315 315 315 315 316 318 319 319 317 314 312 310 310 308 307 307 306 307 306 305 305 305 305 305 304 306 307 308 309 310 312 314 315 315 315 315 315 315 315 315 315 315 314 313 312 311 310 309 309 309 308 307 307 306 305 305 305 304 304 304 304 303 303 303 302 302 302 302 301 301 301 301 300 300 300 300 300 299 299 298 297 297 296 296 296 295 294 294 294
319 319 319 319 320 320 321 319 317 318 319 316 316 321 321 320 321 318 311 308 309 308 307 308 307 306 305 305 305 304 304 304 304 305 306 307 308 309 311 313 314 315 315 314 314 314 314 314 313 312 310 309 308 308 307 307 306 306 306 306 305 305 305 304 304 304 303 303 302 302 301 301 300 300 299 299 299 298 298 298 297 297 297 297 297 296 296 296 295 295 295 294 294 293 293 293 293
320 320 319 319 319 320 321 320 319 320 321 317 315 320 322 319 320 318 312 310 310 308 308 308 307 306 305 305 305 304 304 305 304 305 306 307 308 309 309 311 312 312 312 312 312 311 310 309 308 308 307 307 306 306 305 305 305 305 305 305 305 304 304 304 303 303 302 301 300 300 299 298 298 298 297 297 297 296 296 296 296 296 296 295 295 295 295 295 294 294 294 293 293 292 292 292 292
322 319 318 319 319 320 320 320 319 319 320 317 315 318 320 319 318 317 313 313 312 309 308 309 308 307 306 305 305 304 304 305 305 305 306 306 307 307 308 308 308 308 308 308 308 307 307 306 306 305 305 305 305 304 304 304 304 304 304 304 304 303 303 302 302 301 300 300 299 298 297 297 296 296 296 296 295 295 295 295 295 295 295 295 294 294 294 293 293 293 293 292 292 292 291 291 291
320 316 317 318 318 319 319 319 319 318 319 319 317 317 318 319 318 316 314 314 314 312 309 309 309 307 306 305 305 304 303 304 305 305 305 305 306 306 306 306 306 306 306 306 305 305 305 304 304 304 304 303 303 303 303 303 303 303 303 303 303 302 302 301 300 300 299 298 297 297 296 295 295 295 295 295 294 295 295 294 294 294 294 294 293 293 293 292 292 292 292 292 291 291 291 290 290
317 315 316 317 317 318 318 318 318 318 319 320 319 318 318 319 318 316 315 315 317 316 312 310 310 308 306 305 304 303 303 304 304 304 305 305 305 305 305 305 305 305 305 304 304 304 304 303 303 303 303 302 302 302 302 302 302 302 301 301 301 301 301 300 299 298 297 296 296 295 295 294 294 294 294 294 294 294 294 293 293 293 293 293 293 292 292 292 292 291 291 291 291 290 290 290 289
316 316 317 317 317 316 317 317 317 318 320 320 319 318 319 319 318 318 318 317 317 317 313 311 311 308 306 306 304 303 303 304 304 304 304 305 305 305 305 305 305 304 304 304 303 303 303 303 302 302 302 302 302 302 301 301 301 301 300 300 300 300 300 299 298 297 295 295 295 294 294 294 294 294 294 293 293 293 293 293 293 292 292 292 292 291 291 291 291 291 290 290 290 290 289 289 289
316 318 318 318 318 317 317 318 317 320 322 319 317 318 319 319 318 317 318 316 316 316 313 312 310 308 306 305 304 303 303 304 304 304 304 305 305 305 304 304 304 304 303 303 303 302 302 302 302 302 302 301 301 301 300 300 300 300 299 299 299 299 298 297 297 295 294 294 294 294 294 294 294 293 293 293 293 293 293 293 292 292 291 291 291 291 290 290 290 290 289 289 289 289 289 288 288
316 318 318 320 322 320 321 322 319 321 321 315 313 317 319 319 317 317 317 315 314 314 313 312 310 308 307 305 304 303 303 303 303 304 304 304 304 304 304 304 303 303 303 303 302 302 302 302 301 301 301 301 300 300 300 299 299 299 299 298 298 298 297 296 295 295 294 294 294 294 294 293 293 293 293 293 293 293 292 292 291 291 291 290 290 290 289 289 289 289 289 289 288 288 288 288 288
315 318 319 321 324 323 323 324 322 322 318 312 311 315 317 317 317 317 315 312 311 311 311 312 310 308 307 305 303 303 303 303 303 304 304 304 304 304 303 303 303 303 302 302 302 302 301 301 301 301 301 300 300 299 299 299 299 298 298 297 297 296 295 295 295 294 294 294 294 294 293 293 293 293 293 293 292 292 292 291 291 290 290 290 289 289 289 289 289 288 288 288 288 288 288 287 287
315 318 319 321 323 324 324 323 323 322 316 310 311 314 317 317 315 313 310 308 307 307 308 309 309 307 306 304 303 303 303 303 303 303 304 304 304 303 303 303 303 302 302 302 302 301 301 301 300 300 300 300 299 299 298 298 297 297 297 296 296 295 295 295 294 294 294 294 294 294 293 293 293 293 293 293 292 292 291 291 290 290 289 289 289 289 288 288 288 288 288 288 287 287 287 287 287
315 317 319 320 321 321 320 318 318 318 316 313 312 314 316 315 311 307 307 306 306 306 306 308 308 307 306 304 303 303 303 303 303 303 304 304 303 303 303 303 302 302 302 301 301 301 300 300 300 299 299 299 299 298 297 297 296 296 296 295 295 295 294 294 294 294 294 294 294 294 293 293 293 293 292 292 291 291 290 290 289 289 289 288 288 288 288 288 288 288 288 287 287 287 287 287 287
316 316 318 317 317 317 316 315 314 314 318 317 314 314 315 314 312 308 307 307 306 306 306 307 308 307 305 304 303 303 303 303 303 303 303 303 303 303 303 302 302 302 301 301 301 300 300 300 299 299 298 298 298 297 296 296 296 295 295 294 294 294 294 294 294 294 294 294 293 293 293 292 292 291 291 291 290 290 289 289 289 288 288 288 288 288 288 288 288 287 287 287 287 287 287 287 287
316 317 318 315 315 315 315 317 317 316 319 319 316 316 316 316 316 311 308 309 308 306 306 306 307 306 306 305 303 303 303 302 302 303 303 303 303 303 302 302 302 301 301 301 300 300 299 299 299 298 298 297 297 296 295 295 295 295 294 294 293 293 293 293 294 293 293 293 292 292 291 291 291 290 290 289 289 289 288 288 288 288 288 288 288 288 287 287 287 287 287 287 287 287 287 286 286
313 315 316 316 318 318 317 318 319 319 320 320 318 317 317 317 317 313 311 312 310 308 306 306 306 306 306 306 304 303 303 302 302 303 303 303 302 302 302 302 301 301 301 300 300 299 299 298 298 297 297 297 296 296 295 294 294 294 293 293 293 293 293 293 293 293 292 292 292 291 291 291 290 290 289 289 288 288 288 288 288 288 288 287 287 287 287 287 287 287 287 287 286 286 286 286 286
311 312 314 315 316 318 318 318 318 319 320 321 320 317 317 318 317 314 314 314 312 309 306 306 307 307 306 306 305 304 303 302 303 303 303 303 302 302 302 302 301 301 301 300 299 299 298 298 297 296 296 296 295 295 294 294 293 293 293 293 293 293 293 292 292 292 292 292 292 291 291 291 290 289 288 288 288 288 288 288 287 287 287 287 287 287 287 287 287 287 286 286 286 286 286 285 285
312 312 314 315 314 314 316 317 316 317 319 321 321 320 318 317 316 315 315 314 313 310 308 308 308 308 307 307 306 304 303 303 303 304 303 303 302 302 302 301 301 301 300 300 299 298 298 297 296 296 295 295 295 294 293 293 293 292 292 293 292 292 292 292 292 292 292 292 291 291 290 290 289 288 288 288 288 288 288 287 287 287 287 287 287 287 287 287 287 286 286 286 285 285 285 285 285
314 313 314 316 315 315 316 318 317 315 317 318 319 320 319 314 313 314 314 314 314 312 310 309 309 309 308 307 306 305 304 304 304 304 303 303 302 302 302 301 301 300 300 299 298 298 297 296 296 295 295 294 294 294 293 293 292 292 292 292 292 292 292 292 291 292 292 291 291 290 289 289 288 288 288 288 288 288 287 287 287 287 287 287 287 287 287 287 286 286 285 285 285 285 285 285 285
Wind_Speed
6 5 4 3 3 3 1 3 3 3 2 4 3 2 5 4 1 2 4 2 2 6 7 5 5 5 6 5 6 6 7 9 9 6 4 5 6 7 5 3 4 4 0 7 9 12 17 14 14 13 11 11 9 9 7 6 5 4 3 2 2 2 1 2 3 4 6 7 8 9 9 9 10 9 8 7 6 5 3 3 4 5 5 5 6 6 6 7 7 7 7 7 6 6 5 5 4
6 5 4 3 4 1 1 3 2 2 2 4 3 4 5 3 2 3 6 5 5 6 5 5 4 3 5 4 5 2 6 10 10 9 8 7 7 7 6 3 4 3 1 9 9 11 16 13 13 14 12 11 10 9 8 6 5 3 3 1 1 2 1 2 4 6 7 8 8 9 9 9 8 8 7 6 6 4 3 3 3 4 4 6 6 6 6 6 6 6 6 6 5 5 5 4 4
6 5 4 3 2 2 2 3 3 2 2 4 4 4 3 3 5 6 7 7 7 5 3 3 2 2 5 4 2 2 7 10 10 8 7 7 5 6 6 4 3 3 2 10 11 9 14 13 13 14 12 11 10 9 8 7 5 4 3 2 1 2 1 2 4 6 7 8 9 9 9 8 8 7 6 5 5 4 3 3 3 2 3 5 7 7 6 5 5 5 5 5 6 7 7 7 7
6 5 3 2 1 4 3 3 2 2 1 3 4 5 3 5 7 7 7 6 5 3 3 3 1 3 5 2 4 3 7 9 10 8 5 7 5 5 5 4 4 3 2 10 11 7 11 13 14 14 12 11 10 10 9 7 6 5 3 3 3 2 1 1 3 6 6 8 9 9 9 8 8 7 5 4 4 4 3 2 2 1 2 4 6 6 5 4 4 4 5 7 8 9 10 11 11
7 6 3 1 2 2 2 2 2 2 3 3 4 6 4 6 6 7 8 6 5 3 3 4 2 4 4 7 6 4 7 6 8 9 4 5 6 5 4 5 4 3 3 9 11 7 8 12 14 14 12 10 10 10 9 7 6 5 4 3 3 3 1 0 3 5 6 7 8 9 8 7 7 6 5 4 3 3 3 2 1 1 2 3 5 5 4 3 4 5 7 9 10 12 12 13 13
7 6 3 1 2 2 3 2 1 2 5 5 5 7 5 6 6 6 7 7 5 4 4 4 3 2 4 8 8 10 10 6 6 8 5 4 4 4 4 6 5 4 5 9 11 8 6 9 13 14 12 11 10 9 8 7 6 6 5 4 3 3 2 1 2 5 6 6 8 8 7 5 5 5 5 4 3 3 3 2 2 1 1 1 2 3 3 3 4 6 8 10 12 13 13 11 11
6 4 2 1 2 2 4 1 1 4 5 6 6 7 6 7 4 3 5 5 4 3 3 4 4 3 3 6 7 11 10 9 8 7 6 4 4 4 3 6 6 5 6 9 10 8 7 8 13 14 12 11 10 9 8 7 7 6 6 5 4 3 2 2 2 4 5 6 7 7 5 4 3 4 4 4 3 3 3 3 3 2 2 1 1 2 4 4 5 8 10 11 12 13 11 9 8
6 3 1 3 2 2 3 1 3 4 4 5 6 6 7 6 3 2 3 3 3 3 3 4 4 4 5 5 5 8 8 10 10 10 9 6 5 4 2 4 7 7 7 9 9 9 8 8 12 14 13 12 11 11 9 8 8 7 6 5 4 3 3 4 3 3 4 5 6 5 4 3 3 3 3 3 2 2 3 3 3 2 2 1 1 3 3 4 6 9 11 12 13 13 11 8 7
5 3 3 4 2 2 2 2 3 4 5 4 5 7 7 5 2 1 2 4 3 3 3 4 6 4 4 5 8 8 7 10 9 9 9 7 5 4 2 1 5 7 8 9 8 8 9 9 11 13 13 12 12 11 10 9 8 7 7 6 5 3 4 5 4 3 4 5 5 4 3 2 2 2 2 2 1 1 1 3 3 3 2 2 2 3 3 5 8 10 12 13 13 12 10 8 6
4 3 3 3 2 2 2 2 3 4 6 4 5 7 5 4 2 1 1 3 3 2 4 2 4 4 1 4 8 6 6 9 7 7 6 6 4 3 2 1 2 5 7 8 8 7 8 10 12 13 13 13 12 12 11 9 8 8 7 6 6 4 4 6 6 4 4 5 5 4 3 2 2 1 1 1 1 1 1 4 5 4 3 3 3 4 6 7 9 11 13 14 14 12 9 7 5
3 1 2 3 3 2 2 3 4 4 6 5 6 6 5 3 1 1 1 2 3 2 4 1 2 4 2 3 7 5 3 4 5 5 5 4 3 1 1 1 2 3 5 6 7 7 7 9 11 12 13 13 13 13 12 11 9 8 8 7 6 5 5 6 7 5 5 5 5 5 4 3 3 2 2 1 1 2 3 5 6 5 3 4 5 6 7 8 10 12 14 15 15 13 9 5 3
3 1 2 4 2 1 1 2 4 5 6 6 6 5 4 3 2 1 1 1 2 2 5 3 3 4 5 3 7 6 2 4 6 6 5 4 4 2 3 4 4 4 5 5 5 6 7 8 10 12 13 14 14 14 13 12 11 10 9 8 8 7 6 6 7 7 6 6 6 6 5 5 4 3 2 1 2 2 4 6 6 5 5 5 6 7 8 9 11 13 14 16 15 13 8 4 1
3 1 3 3 1 1 1 1 4 5 5 5 6 5 3 3 2 1 2 1 1 0 5 5 3 3 5 1 7 7 2 5 8 8 5 4 5 5 5 6 6 6 6 6 6 6 6 7 9 11 13 14 13 13 14 14 13 12 11 10 9 8 7 6 7 8 7 7 7 7 7 6 5 4 3 3 3 3 4 6 5 5 6 6 7 8 9 11 12 13 15 16 15 12 8 4 2
3 3 4 1 1 1 0 1 4 4 4 7 5 4 3 1 1 2 3 3 1 4 5 4 2 3 4 1 6 5 3 6 9 10 7 5 5 6 6 7 8 7 6 7 6 6 5 6 8 10 11 12 12 11 12 13 14 13 12 11 10 9 8 7 7 8 8 8 7 7 8 8 6 5 4 5 5 4 5 6 7 7 7 8 9 10 11 12 13 15 16 16 16 13 8 4 3
2 2 3 1 1 2 2 0 3 5 4 8 4 2 3 2 2 1 2 4 3 5 4 2 2 4 2 2 1 3 8 9 11 10 7 6 5 6 6 7 8 8 8 7 7 7 5 5 6 8 9 10 12 11 11 11 13 14 14 13 11 11 10 9 7 7 8 8 8 7 8 8 7 7 6 6 7 6 6 7 8 9 9 10 11 12 14 14 15 16 16 17 16 14 8 5 4
2 2 3 2 2 2 3 2 2 4 4 8 4 2 3 4 3 1 0 3 3 1 3 2 2 3 3 3 4 7 11 12 10 7 6 4 4 5 5 6 7 8 8 8 8 8 7 5 5 6 8 9 11 12 12 10 11 13 15 14 12 12 12 11 9 8 7 8 8 8 8 8 8 8 7 8 8 7 7 8 9 10 10 11 12 13 15 15 16 17 17 17 17 15 10 5 4
1 2 4 3 2 1 3 3 2 2 7 8 5 1 3 3 4 2 1 3 4 2 1 1 2 3 2 3 5 8 11 11 7 4 4 3 2 4 5 5 5 7 8 9 10 10 9 8 6 6 7 9 10 11 12 12 12 12 13 15 15 13 13 12 10 8 7 7 8 8 8 8 7 8 8 9 9 9 8 9 10 10 10 10 11 12 13 14 15 16 16 17 16 15 11 7 6
2 2 3 2 1 2 2 2 2 3 6 7 5 2 3 1 1 1 3 5 5 4 2 3 2 2 2 4 7 9 8 6 4 2 2 2 2 4 7 6 7 7 7 9 10 11 11 11 10 8 7 8 9 9 11 12 12 11 11 12 14 14 13 12 11 9 7 8 8 7 8 7 7 8 9 10 9 9 9 9 9 9 10 11 11 10 10 12 13 14 15 17 16 15 12 9 7
2 2 3 0 3 4 4 3 4 2 4 5 4 3 3 3 3 4 5 4 4 5 4 7 3 3 2 8 10 7 4 3 3 2 1 1 4 6 7 7 9 9 9 10 10 12 13 13 13 11 10 9 9 9 9 11 11 11 12 12 12 13 12 12 11 10 9 9 9 7 7 7 8 9 10 10 10 10 10 10 10 10 10 10 10 10 10 10 11 13 14 16 16 15 13 10 9
1 2 3 3 4 3 4 3 4 4 3 1 2 2 3 2 2 5 5 7 7 3 3 3 4 6 4 9 7 2 1 2 3 2 3 3 4 5 6 7 8 10 10 11 12 13 14 15 15 14 13 12 11 10 8 8 8 9 12 13 13 12 12 12 12 12 11 11 10 9 8 8 9 10 11 11 11 11 11 12 13 12 10 10 11 12 11 10 11 11 12 13 14 13 12 12 11
1 3 2 5 3 2 5 3 4 4 2 1 0 0 3 3 1 5 5 8 5 4 7 3 2 3 5 7 4 2 1 1 1 2 2 3 3 4 4 6 7 8 9 11 13 14 15 15 16 16 16 15 14 12 8 7 7 8 10 12 12 13 12 11 12 13 14 12 11 11 12 11 11 11 12 11 10 11 11 12 13 12 10 10 10 10 10 11 11 11 12 12 12 12 13 13 13
2 0 3 4 1 0 5 4 4 3 0 1 2 3 1 2 4 5 6 7 1 4 3 3 5 6 6 4 3 2 2 1 1 2 2 2 2 3 3 4 5 6 8 10 12 14 15 16 17 18 18 17 16 14 9 8 8 7 7 9 11 12 13 12 13 14 14 13 12 13 14 13 13 14 12 10 8 9 11 10 10 9 7 7 8 8 8 9 9 9 10 11 12 12 13 15 15
3 2 3 2 1 1 3 4 3 3 2 3 4 2 1 5 7 5 5 4 2 3 5 4 5 5 2 2 2 2 2 2 2 2 3 3 4 5 6 6 7 7 7 9 10 12 14 16 17 18 18 18 17 15 10 8 9 8 7 9 9 10 12 12 12 13 14 15 15 14 13 11 13 14 12 10 9 9 10 10 10 8 6 7 9 10 9 8 8 9 11 13 14 13 14 15 16
4 1 3 2 0 2 0 3 4 4 5 5 3 3 6 9 5 4 4 4 6 8 5 4 2 2 1 1 1 2 3 3 3 3 3 4 5 7 7 8 8 8 7 8 8 10 12 13 15 16 17 17 16 14 10 8 8 9 8 9 8 8 10 10 11 13 14 16 16 13 13 11 11 12 11 10 10 9 9 11 11 10 9 9 9 9 8 8 8 9 12 15 15 14 15 15 16
6 2 3 2 2 4 3 3 5 6 7 6 5 7 9 7 3 4 5 4 7 7 4 3 2 2 1 1 2 3 3 3 3 4 4 6 7 7 8 8 8 8 7 7 6 7 9 10 12 13 14 15 15 13 10 8 8 9 10 11 10 11 12 12 13 13 14 17 17 14 14 14 14 12 11 11 11 11 11 11 11 12 12 11 9 9 10 10 9 9 11 13 15 16 16 15 16
2 2 1 2 4 5 5 6 7 7 7 5 6 9 7 5 4 4 5 5 6 5 4 3 2 1 2 3 4 3 3 3 3 3 3 4 5 6 7 7 6 5 5 5 4 5 6 8 10 10 11 14 13 9 8 8 9 11 14 15 14 14 15 16 16 15 15 17 17 14 12 13 15 14 13 12 11 12 12 11 12 12 13 12 12 12 12 11 11 11 12 13 15 16 15 14 14
2 2 4 6 8 7 6 8 8 6 6 7 8 10 4 7 6 4 6 7 6 5 3 3 2 3 5 5 4 4 3 2 1 1 1 2 2 3 3 4 4 3 3 2 2 2 4 5 7 8 7 9 9 9 11 12 15 17 18 17 15 15 16 16 15 15 16 15 15 14 12 11 12 13 14 15 13 12 11 11 11 12 13 13 13 12 11 11 12 12 12 13 14 15 14 12 12
2 4 6 9 10 9 10 10 7 5 5 6 8 7 3 8 6 3 9 10 7 6 4 3 3 3 4 4 3 2 1 0 1 1 1 2 1 1 1 1 1 1 2 1 1 0 2 3 5 7 7 9 11 13 16 17 18 18 17 15 13 14 16 15 14 14 14 13 13 13 13 13 11 10 13 15 14 12 11 11 11 12 13 12 11 11 10 10 10 10 11 12 12 12 13 12 13
2 4 7 8 8 10 11 8 5 5 3 5 6 5 6 9 6 7 10 10 8 7 5 4 3 3 3 2 1 1 1 1 2 2 3 3 2 1 1 1 2 2 2 2 3 2 2 3 5 8 10 11 14 15 16 17 16 15 16 16 14 12 13 12 11 12 11 9 9 11 12 14 13 10 10 10 10 10 10 10 11 11 11 10 9 9 8 7 8 8 9 10 10 12 12 13 14
4 5 5 6 9 7 7 7 5 5 4 7 6 4 5 9 8 9 10 10 9 8 6 5 4 3 4 3 2 2 2 2 2 3 4 3 2 1 1 2 2 2 2 3 4 3 3 6 6 9 11 11 13 15 16 16 15 14 14 14 13 11 11 10 8 8 7 6 8 11 11 12 12 11 11 10 8 8 8 8 7 8 8 6 6 5 4 5 6 6 7 9 10 12 11 12 14
5 4 4 5 7 2 8 8 6 5 5 9 7 5 3 8 9 9 9 10 10 8 7 6 5 4 4 4 3 3 3 3 3 4 4 2 1 1 2 2 3 2 3 4 5 5 4 6 8 9 12 12 13 14 15 14 13 13 12 10 10 10 10 9 8 7 5 5 8 9 8 7 7 7 9 10 9 8 7 6 6 5 4 3 2 3 4 4 5 6 7 8 10 9 8 9 11
5 4 5 5 4 2 8 8 6 3 4 9 8 5 2 8 10 8 8 11 10 8 7 6 5 5 4 3 3 2 3 4 3 3 3 2 1 1 2 3 3 3 4 5 7 7 5 5 8 9 10 13 14 12 14 13 11 11 11 9 8 7 7 6 6 5 3 2 3 3 2 2 3 3 4 6 6 6 5 5 5 4 3 3 4 5 5 5 7 8 8 8 7 6 7 9 11
5 5 6 5 6 5 4 6 5 3 3 8 9 6 2 7 10 8 8 10 10 9 7 7 6 5 5 4 4 3 2 4 4 4 3 3 1 1 2 3 4 4 6 6 8 10 8 6 8 10 9 12 13 12 11 12 10 9 8 7 6 6 5 4 4 3 1 1 2 2 2 1 0 1 1 2 3 3 4 5 5 5 4 4 5 5 5 6 7 8 8 7 7 7 11 13 13
5 6 6 7 8 7 4 4 6 5 4 6 8 8 6 5 12 10 9 10 10 9 8 8 7 6 5 4 4 4 3 5 6 6 5 4 2 2 3 4 5 6 7 8 8 10 10 9 9 10 10 10 11 11 9 9 9 8 8 7 5 4 4 4 4 4 3 3 3 3 4 4 4 3 2 1 3 3 4 4 5 5 4 4 4 5 5 5 6 7 7 8 10 11 13 15 16
7 5 5 7 7 8 8 3 6 7 5 6 8 9 9 5 12 10 10 10 9 8 7 7 7 6 6 5 5 4 4 6 8 7 6 5 3 3 4 7 8 9 9 10 9 9 11 11 11 12 13 12 11 11 10 9 9 9 8 7 6 6 5 5 4 3 4 4 4 3 3 3 3 4 4 4 4 4 4 4 4 4 3 3 3 4 4 5 6 8 9 11 13 13 14 16 17
8 6 5 7 6 7 6 1 5 5 5 8 9 10 11 8 10 10 10 10 9 8 7 7 7 7 6 6 6 5 5 7 9 8 7 5 4 4 6 9 11 11 11 11 11 11 11 11 11 12 12 12 11 10 9 10 10 9 9 9 8 8 7 6 5 4 4 4 4 3 3 2 2 3 4 5 5 4 4 4 4 3 3 4 4 5 6 7 8 9 10 10 12 13 14 15 16
7 7 7 9 8 8 5 3 6 2 4 8 10 11 13 12 7 11 11 9 9 9 9 9 8 7 7 6 6 6 6 9 9 8 6 5 5 5 7 10 12 12 12 12 12 12 11 12 12 10 9 9 8 8 8 8 9 9 9 9 8 8 7 6 5 5 4 3 3 3 3 3 3 3 3 3 3 3 3 2 2 2 3 4 4 5 6 6 7 8 8 9 10 12 13 14 15
8 8 8 8 8 10 7 3 5 3 3 8 11 11 13 14 8 11 12 10 10 11 11 10 9 8 7 7 7 6 7 9 8 7 7 6 6 7 8 10 11 12 12 12 13 13 13 13 12 10 9 8 8 8 7 7 7 8 7 7 6 7 7 5 5 6 6 6 6 6 6 6 6 5 5 4 4 3 3 2 2 3 3 4 5 7 8 9 9 9 9 9 10 12 13 14 15
9 7 7 8 7 8 5 4 5 3 3 6 9 9 11 11 6 11 11 10 9 9 8 7 8 8 7 7 7 7 7 7 7 7 7 8 8 9 9 10 12 13 14 14 14 14 13 12 11 9 9 9 9 8 7 6 7 7 6 7 7 9 10 10 11 12 12 11 11 11 12 12 12 12 12 11 10 10 9 9 9 9 9 10 10 10 11 11 11 11 10 10 10 13 14 14 15
8 7 7 7 6 7 5 3 4 4 4 4 5 6 10 8 6 8 8 9 7 6 5 5 6 7 7 8 8 7 7 7 7 8 8 9 10 10 10 11 13 14 15 15 15 14 13 12 11 11 10 10 9 8 8 8 9 10 10 12 13 14 15 15 15 15 14 14 15 15 15 15 15 15 14 14 14 14 13 13 12 12 11 11 11 10 10 11 12 12 12 12 11 13 14 16 16
9 10 9 8 8 9 7 2 3 4 6 5 5 6 9 10 11 8 6 7 6 7 7 7 8 8 8 10 11 9 8 8 8 9 11 11 12 12 11 13 15 16 16 16 16 15 14 13 12 12 11 11 12 12 12 13 14 15 15 15 15 16 16 16 15 15 15 15 15 15 16 15 15 14 14 14 14 14 13 13 12 12 11 11 10 10 11 11 12 12 12 13 13 14 15 16 16
9 10 12 12 12 11 10 4 1 5 6 6 6 6 5 7 12 10 7 6 7 8 9 9 10 10 10 10 11 12 13 12 11 11 13 14 14 14 14 15 16 17 17 17 17 16 15 14 13 13 14 15 16 16 17 16 16 15 15 15 15 15 15 15 14 14 14 14 14 14 14 14 13 13 13 13 12 12 12 12 11 11 11 11 11 11 11 11 12 12 13 13 14 14 14 15 15
7 4 6 11 12 12 11 7 3 5 4 3 4 7 4 2 7 8 7 7 9 8 9 11 11 11 11 11 10 12 14 16 16 15 16 16 16 17 17 18 18 18 18 18 17 17 17 17 16 17 17 17 17 17 16 15 14 14 13 13 13 13 13 14 14 13 13 13 13 12 12 12 12 11 11 11 11 11 11 11 11 11 11 12 12 12 12 12 13 14 14 14 14 15 15 15 16
5 2 0 5 8 10 10 7 6 5 4 1 5 6 6 5 4 7 8 8 9 9 10 11 13 13 13 12 11 12 14 16 18 18 19 19 20 20 20 20 20 20 20 20 20 20 20 19 19 18 18 17 16 15 14 13 12 12 11 10 11 11 11 13 13 12 12 12 11 11 11 11 11 10 10 10 11 11 11 11 11 12 12 12 13 13 14 14 14 15 15 15 15 16 16 17 17
2 4 3 1 2 5 6 6 6 5 4 4 7 6 5 7 4 6 6 7 8 11 12 13 15 16 15 14 13 13 15 18 20 21 22 23 23 23 22 22 22 22 22 22 22 21 21 19 18 17 17 16 15 14 12 11 11 10 9 8 9 10 11 11 12 11 11 11 10 10 10 9 9 9 9 10 10 10 11 11 12 12 12 13 14 14 15 15 15 15 16 16 17 17 17 17 17
3 6 5 4 2 1 3 5 5 4 5 7 8 9 6 7 5 6 5 5 9 10 11 13 16 17 16 15 15 15 18 21 22 23 24 25 25 25 25 24 24 24 23 23 22 21 20 18 17 16 16 15 15 14 12 11 10 9 8 8 8 9 10 11 11 11 11 9 9 9 8 8 8 8 9 9 10 10 11 12 12 13 13 14 14 14 14 15 15 16 16 17 17 17 17 17 17
8 7 5 4 2 2 3 4 3 5 8 9 11 13 9 7 5 7 5 3 6 6 9 11 15 18 17 16 17 18 21 24 24 25 26 27 27 27 26 26 25 24 23 22 21 20 19 17 16 15 15 14 14 13 11 10 10 9 8 8 7 8 9 10 10 10 10 8 7 7 7 7 7 8 9 9 10 11 12 13 13 14 14 14 14 14 14 15 15 15 15 15 15 16 16 16 15
6 5 4 3 3 3 4 4 4 7 9 6 7 10 11 9 5 5 5 5 4 5 9 13 16 18 19 17 17 20 23 26 27 27 28 29 28 28 28 27 25 24 22 21 20 19 18 17 16 15 14 13 13 12 11 11 10 9 8 8 8 8 8 8 8 8 8 7 6 6 6 6 7 7 8 9 10 11 12 13 14 14 14 14 14 14 14 14 14 14 14 14 14 14 14 14 14
5 5 6 5 4 4 5 6 6 8 6 2 3 4 7 9 8 6 5 7 6 4 5 13 19 19 20 20 19 23 26 27 28 29 30 30 30 29 28 27 25 24 22 21 20 19 18 17 16 14 13 13 13 13 12 11 11 9 9 8 7 7 8 7 7 7 6 5 5 4 5 5 6 7 8 9 10 12 13 13 14 14 15 14 14 14 14 13 13 13 13 13 14 14 14 13 13
9 8 8 7 6 5 7 7 8 8 4 2 3 4 4 6 8 9 5 7 7 7 6 11 20 22 22 22 23 26 29 29 30 31 31 32 31 30 29 27 25 24 22 21 20 19 18 17 16 15 14 14 13 13 13 12 11 10 9 8 7 7 7 7 6 5 5 4 3 3 4 4 6 7 9 11 12 13 14 15 15 15 15 14 14 13 13 13 13 13 12 13 13 13 13 14 14
11 9 8 8 6 6 7 6 8 6 2 2 3 3 5 4 2 1 4 8 7 7 8 10 16 20 21 22 25 28 30 31 32 33 33 33 32 30 29 27 26 24 23 22 20 20 18 17 16 15 14 15 14 14 13 12 11 10 9 8 8 7 7 6 6 5 4 2 2 2 4 5 7 9 10 12 13 14 14 15 15 14 14 14 13 13 13 13 12 12 12 13 13 13 14 14 15
8 7 8 9 5 5 4 1 2 2 0 2 5 4 4 3 2 3 4 6 7 8 9 11 14 18 21 21 24 29 32 33 34 34 34 34 33 31 30 28 27 26 24 23 21 20 19 18 17 16 15 15 15 15 14 13 12 11 10 9 9 9 8 7 6 5 3 1 1 3 5 6 8 9 11 12 13 13 14 14 13 13 13 13 12 13 13 13 13 13 13 14 14 15 16 16 16
5 7 8 5 1 2 2 1 1 1 5 4 6 5 3 2 2 4 5 5 7 7 8 11 13 17 19 20 24 31 34 35 36 36 36 35 34 32 31 29 28 27 25 24 22 21 20 19 19 17 17 16 16 15 14 13 13 12 12 11 10 10 9 8 6 4 3 1 2 3 5 6 8 9 10 11 12 13 13 13 12 12 12 12 12 13 13 13 14 14 15 15 16 16 17 18 18
5 6 6 4 2 3 3 4 3 4 7 4 6 8 7 5 4 4 6 6 7 7 8 10 12 15 17 19 24 31 35 35 36 37 36 36 35 33 32 30 29 28 26 24 23 22 21 20 19 18 17 17 17 16 15 14 14 14 13 13 12 11 9 8 6 4 2 1 2 3 5 7 8 9 10 11 12 12 12 12 12 12 12 12 13 13 13 14 14 15 16 16 17 17 18 19 19
1 2 2 3 3 6 6 5 5 5 7 5 5 8 8 8 6 6 9 10 9 9 9 10 13 16 18 19 22 28 33 34 36 38 38 37 36 35 34 32 30 28 27 26 25 24 23 21 20 19 18 18 17 17 17 16 15 15 14 14 12 11 10 8 6 4 3 1 2 3 6 8 9 10 11 11 11 11 11 11 11 12 12 12 13 14 14 15 16 16 17 18 18 19 19 20 21
2 3 3 3 2 5 6 5 4 5 6 6 4 5 6 8 8 12 14 13 11 12 10 10 14 18 20 21 23 29 35 37 39 41 40 39 38 36 35 33 31 30 29 28 27 26 24 24 23 22 21 20 19 19 18 17 16 16 15 14 13 11 10 8 7 5 4 2 3 5 6 8 9 10 11 11 12 12 12 13 13 13 14 14 15 16 16 17 18 18 19 19 20 21 21 22 22
7 6 7 6 3 1 3 5 4 4 5 6 6 5 3 2 5 12 16 14 12 12 11 11 15 19 20 22 25 32 38 40 42 43 42 41 40 38 36 34 33 33 31 30 29 27 26 26 25 24 23 22 21 20 19 19 18 17 16 15 14 12 11 10 8 6 4 3 4 5 7 8 9 10 11 12 13 14 15 15 16 16 17 17 18 18 19 19 19 20 20 21 22 22 23 24 24
8 9 9 9 8 4 4 6 5 2 4 4 5 7 3 2 2 3 8 9 10 12 12 11 15 19 21 22 25 32 39 43 44 45 44 42 41 39 37 36 35 35 33 32 31 30 29 29 27 26 24 23 23 22 21 20 19 18 17 16 15 13 12 11 9 7 5 4 4 5 7 8 10 11 13 14 15 16 17 18 19 19 20 20 20 20 20 21 21 21 22 22 23 24 24 25 26
Wind_Direction
4 3 13 10 62 62 146 260 250 197 260 97 92 125 85 49 89 121 103 88 108 65 25 20 9 344 326 327 351 9 26 20 20 25 65 44 22 26 23 30 7 358 52 185 192 190 190 195 190 178 176 180 181 187 189 201 208 194 190 159 173 186 159 121 117 128 122 115 112 111 109 109 115 116 113 111 107 97 85 70 62 63 63 73 80 75 67 67 69 72 74 71 66 58 53 49 51
20 21 31 43 86 45 272 241 255 152 177 115 81 64 96 123 137 63 61 47 56 48 13 10 359 349 324 300 304 313 58 44 43 60 72 43 35 24 27 57 16 10 133 176 184 190 188 195 195 185 178 182 188 193 194 210 222 211 216 197 190 199 172 117 128 138 130 125 121 118 115 111 111 113 113 110 109 104 94 87 76 72 67 77 87 89 81 75 74 70 66 52 38 25 17 12 9
25 25 41 51 77 285 272 234 261 187 157 105 92 86 120 123 78 60 53 41 47 28 4 353 325 3 300 244 310 1 80 61 45 62 72 46 49 19 34 79 33 42 139 172 183 191 184 194 199 190 181 183 191 195 198 213 230 229 235 243 251 230 197 103 129 144 138 132 129 125 120 114 109 108 108 104 109 108 99 101 89 79 73 80 91 96 93 84 72 54 32 10 355 343 335 329 326
23 20 56 60 261 239 245 238 277 282 123 98 111 111 109 84 77 68 59 45 45 20 8 335 350 45 335 17 28 28 73 64 44 44 62 34 44 40 55 94 61 74 141 172 183 188 184 196 198 193 187 184 192 197 200 210 227 234 247 261 267 266 264 104 136 151 148 139 136 128 120 114 105 101 102 103 108 113 118 125 108 109 98 92 91 89 86 73 48 14 350 338 331 325 319 314 310
33 28 69 92 272 246 275 268 280 314 36 65 118 117 103 85 83 75 69 63 55 28 4 328 40 77 43 35 11 12 26 39 43 23 28 15 24 46 75 106 89 99 140 174 178 179 194 201 194 194 192 187 194 201 203 210 225 233 248 262 263 263 252 199 154 161 157 141 135 125 114 103 90 83 88 101 109 115 125 141 152 182 128 97 84 76 67 51 18 344 330 327 325 321 316 311 305
34 28 64 110 288 298 269 238 204 94 34 12 106 115 103 86 80 85 91 91 75 44 15 344 13 53 96 66 43 36 18 26 28 357 1 0 13 45 84 112 103 110 147 174 175 182 210 205 195 193 193 192 196 204 208 219 229 239 256 264 254 250 227 195 179 168 161 142 135 125 108 88 75 64 63 80 95 113 128 150 175 206 218 97 73 55 24 7 341 328 326 327 328 326 323 317 310
22 19 74 217 228 250 262 234 66 95 44 14 87 107 99 91 82 107 119 115 114 80 35 24 360 306 111 101 73 50 34 51 41 16 22 12 23 37 89 117 115 121 152 172 175 195 220 204 198 194 194 197 199 209 211 224 232 242 265 276 254 233 183 172 200 178 165 146 137 126 106 87 83 66 52 63 77 111 152 168 175 187 238 268 357 330 353 350 326 326 327 331 334 334 332 328 321
23 8 275 266 204 214 277 65 53 68 74 52 76 81 85 91 81 104 102 88 93 85 58 50 339 304 96 105 97 66 49 56 48 42 37 32 40 23 62 124 129 136 155 168 179 208 225 205 200 197 195 200 204 213 215 227 234 240 260 272 253 218 168 166 203 202 175 153 139 129 120 101 101 83 49 50 65 108 168 185 181 179 217 220 271 303 351 338 319 328 331 334 337 340 339 335 330
2 335 261 261 240 206 253 115 84 82 102 97 90 88 89 90 74 29 87 90 78 76 71 48 342 332 108 115 107 90 50 44 35 37 33 35 43 27 33 104 133 138 156 167 179 209 221 203 204 201 196 203 207 212 217 227 231 240 249 258 250 213 173 172 197 216 190 166 151 145 143 119 116 104 60 48 355 9 188 214 213 197 207 213 248 282 301 305 313 328 331 332 337 343 343 339 338
303 294 280 272 264 204 206 151 113 111 108 102 98 100 106 103 101 21 37 93 79 78 82 43 341 9 139 130 109 106 54 39 21 17 15 23 37 41 43 346 148 145 154 167 181 201 211 200 206 206 199 203 207 210 214 219 223 233 236 245 248 221 189 178 190 208 197 175 166 165 155 156 154 147 146 80 322 287 222 217 220 209 206 232 255 274 281 296 309 322 326 327 334 342 342 339 347
260 238 294 268 242 220 211 147 126 118 118 122 107 98 106 108 142 143 287 96 93 123 92 308 313 22 271 141 110 127 75 26 6 358 351 350 352 12 128 189 207 177 159 166 182 197 207 200 204 209 207 206 205 207 211 215 216 224 228 235 241 230 206 189 191 193 188 178 174 177 178 189 185 197 212 213 297 257 235 212 208 209 216 241 256 274 287 299 306 314 319 322 330 339 337 332 351
274 174 240 251 249 283 19 120 126 119 135 147 126 105 108 131 205 196 256 94 95 151 91 5 349 350 271 160 124 149 219 321 345 347 343 318 295 260 214 201 207 199 179 172 177 197 208 204 204 207 212 214 211 207 209 214 215 218 223 228 234 234 221 203 200 195 189 188 184 186 195 201 196 205 214 236 271 274 252 220 203 211 229 245 261 281 296 305 312 315 315 319 326 333 329 317 327
306 358 258 259 336 348 31 113 128 135 156 148 116 105 137 178 200 9 320 291 317 55 69 22 353 307 284 140 135 150 233 318 332 329 329 296 276 262 236 217 212 208 196 184 182 194 205 204 204 206 210 216 218 217 214 212 214 219 224 226 230 234 231 220 210 205 201 198 194 193 200 204 203 212 222 242 256 271 259 238 226 224 236 260 278 294 305 313 320 320 316 317 322 326 317 294 276
336 342 290 278 21 268 201 156 146 183 164 121 94 102 155 147 59 13 314 282 50 42 25 24 357 286 279 234 147 136 323 320 320 315 309 280 256 258 246 232 223 218 213 201 197 195 200 200 200 208 210 210 210 223 226 219 217 218 225 228 229 232 231 229 218 213 212 209 203 199 203 205 215 228 231 243 247 250 256 258 255 249 257 280 293 306 313 319 324 320 318 318 321 322 306 272 249
16 322 285 244 199 198 196 219 168 218 155 117 95 97 157 107 67 28 327 318 40 52 357 1 313 302 310 322 76 357 318 311 313 309 301 275 245 254 247 240 231 224 225 219 216 210 205 198 199 206 212 210 198 206 223 228 228 221 223 227 231 233 230 231 228 222 220 217 212 206 206 205 220 232 234 244 246 242 249 257 257 257 271 288 303 316 319 319 318 315 317 319 321 321 302 263 243
18 290 263 234 213 200 181 177 201 221 135 115 106 87 192 146 121 213 18 314 321 9 342 355 315 321 351 337 326 316 307 307 311 306 300 280 252 261 249 239 234 230 230 227 229 227 225 214 206 203 207 213 200 198 206 218 234 230 226 224 228 233 232 234 234 232 225 220 216 213 211 210 223 235 241 246 248 248 244 250 258 264 276 293 308 318 317 312 309 307 311 316 322 321 305 270 248
337 261 255 231 206 186 164 172 188 152 118 119 117 72 248 161 141 217 304 261 260 293 22 70 252 271 272 273 292 301 304 307 314 311 306 293 249 260 255 241 235 234 231 231 231 229 232 230 223 213 206 209 206 201 199 205 222 233 231 224 225 231 235 236 237 239 237 230 221 218 220 220 230 245 249 250 255 258 250 254 262 272 285 300 312 316 313 311 307 303 305 312 320 321 308 280 258
267 250 247 247 172 99 81 109 99 113 121 123 114 45 306 279 110 358 301 217 219 267 150 143 256 280 267 281 304 307 309 322 344 350 333 291 220 232 249 242 239 241 236 235 233 230 231 231 229 226 217 212 211 209 204 203 210 221 223 223 226 231 236 240 242 241 242 240 229 224 224 227 241 251 252 252 256 262 266 270 264 271 289 300 308 308 308 312 312 309 309 311 316 318 312 292 268
288 285 253 356 55 73 55 64 83 91 112 112 107 64 328 314 358 349 306 244 250 271 169 147 136 85 347 310 313 315 325 6 37 37 57 238 226 231 244 243 244 245 242 239 236 235 232 231 231 229 226 219 214 214 212 206 206 209 207 214 223 230 234 235 239 238 236 237 231 225 222 226 238 246 250 252 257 262 268 273 268 272 287 296 299 300 304 308 310 313 314 314 314 315 317 310 292
330 286 267 77 69 91 90 87 87 73 83 104 111 75 309 291 341 321 314 296 280 292 81 136 128 81 358 309 304 296 339 50 80 97 129 162 192 211 228 235 242 244 244 240 236 235 233 233 231 229 229 225 219 214 211 207 206 204 198 204 213 222 227 227 231 234 232 233 231 227 226 225 229 239 245 249 257 264 265 267 271 277 289 297 299 302 305 305 309 318 323 325 322 321 324 325 316
306 288 345 78 79 129 119 111 103 90 58 323 95 266 255 188 290 296 293 288 268 84 51 10 337 359 306 293 276 208 193 121 114 124 146 166 182 201 221 231 240 241 241 238 236 234 232 232 231 230 228 226 224 216 208 202 202 202 198 197 205 213 218 223 227 231 230 230 230 225 226 226 226 235 239 243 251 258 262 267 276 287 297 296 299 306 308 312 324 330 332 335 332 328 326 328 326
264 276 47 78 2 69 116 119 117 110 349 281 239 248 221 187 259 257 253 278 313 72 17 299 277 269 267 266 229 206 222 213 209 210 218 232 258 278 277 271 266 258 251 245 242 237 232 230 229 230 229 228 226 221 210 199 196 196 198 195 201 209 211 216 223 231 231 228 232 227 228 228 227 234 238 242 246 253 260 264 275 287 288 283 292 297 294 304 322 323 320 326 326 326 326 326 327
269 145 104 89 341 349 107 132 150 148 223 237 236 243 303 267 255 222 234 270 284 298 296 283 260 240 231 217 205 227 240 245 243 236 251 268 297 308 307 302 295 286 274 263 254 247 242 236 233 231 230 230 228 224 212 202 194 182 198 199 195 208 210 215 222 230 230 228 233 229 227 227 227 234 235 238 242 248 259 264 267 265 260 272 281 273 269 283 301 302 303 313 318 320 322 324 325
269 238 129 123 211 266 232 146 186 198 224 238 240 261 260 255 244 193 206 235 252 267 276 258 224 184 176 188 232 277 271 280 276 274 283 291 306 313 314 313 308 303 296 284 270 259 253 247 243 238 234 232 231 227 211 202 194 178 200 202 192 208 203 207 224 229 231 230 229 227 225 224 226 231 229 236 242 237 243 255 260 255 250 261 273 264 261 278 290 293 298 305 312 317 319 323 326
240 278 116 154 230 240 243 214 231 229 235 238 230 251 251 236 223 198 188 206 240 241 226 207 144 133 185 227 267 266 263 263 266 282 292 300 309 315 317 317 315 312 307 297 281 265 254 247 242 239 232 225 226 227 208 195 190 181 199 199 197 208 196 197 215 221 227 229 229 234 235 228 228 229 228 234 239 235 234 242 248 250 250 251 260 256 254 269 283 289 295 303 310 316 320 326 329
216 323 69 239 252 241 248 252 252 241 235 221 222 251 243 192 197 196 166 192 213 196 194 186 136 195 233 246 248 240 238 233 235 253 268 287 299 307 313 316 317 312 309 303 287 266 249 239 232 228 220 211 210 213 201 185 184 190 198 197 198 205 199 201 211 214 221 227 230 235 236 231 231 232 233 233 235 237 235 236 238 237 240 246 251 248 248 262 276 285 294 305 312 316 320 329 332
33 321 291 268 266 258 247 249 252 249 239 219 233 261 223 157 201 202 158 192 195 161 179 185 173 225 239 240 233 224 219 211 208 214 241 269 286 300 300 306 319 322 328 322 294 259 234 226 220 210 203 199 190 186 189 186 188 194 195 194 199 205 206 206 210 215 223 231 234 235 235 235 240 244 246 241 235 238 234 231 233 232 237 243 243 240 248 260 270 283 297 308 313 316 322 331 335
342 309 291 263 255 252 240 240 244 239 235 216 229 256 181 161 209 170 150 182 179 155 168 176 186 212 233 240 234 230 218 142 28 13 332 327 334 330 309 315 344 7 13 12 11 216 181 191 194 176 165 172 178 187 190 185 187 191 190 191 195 203 211 211 213 220 229 239 244 245 241 238 243 249 248 237 227 231 234 234 241 248 246 240 239 244 253 265 279 292 302 309 314 319 324 330 332
291 278 286 274 259 250 233 219 211 215 203 179 205 238 206 192 186 132 150 173 165 167 180 170 183 206 227 245 263 278 319 342 350 329 309 319 332 340 16 45 52 54 51 44 47 69 113 130 144 150 162 176 179 185 185 181 183 185 188 195 196 201 211 215 222 232 237 246 256 261 254 246 245 245 244 236 226 228 236 245 250 248 242 238 248 256 260 277 292 299 306 313 320 323 323 325 328
270 247 264 290 276 247 188 163 168 196 165 159 196 258 209 180 151 134 156 168 167 181 186 180 186 196 217 216 239 276 284 289 293 282 284 292 307 6 45 55 56 56 70 68 73 75 98 125 133 140 156 170 171 175 177 174 179 184 186 196 204 206 207 210 223 233 235 242 257 264 260 251 246 242 242 242 246 244 244 259 254 229 222 231 248 261 277 298 302 308 317 320 321 321 319 320 323
261 256 241 260 272 214 141 152 176 188 158 165 208 277 215 153 139 146 167 172 179 191 183 183 183 176 208 209 211 256 257 256 253 256 267 268 278 63 69 68 66 64 78 90 104 101 96 125 135 140 150 155 156 168 174 168 174 186 185 185 195 200 202 209 222 231 236 242 249 256 257 247 235 233 238 241 248 251 247 256 256 233 213 215 252 300 314 313 310 313 314 312 316 320 318 316 317
234 256 254 230 241 187 147 158 188 203 158 176 210 268 200 150 146 150 172 183 189 200 188 180 183 177 191 186 178 225 246 248 238 240 254 258 282 85 97 92 91 87 90 93 107 114 112 128 132 132 147 157 155 160 171 174 179 189 190 189 187 183 187 202 215 226 242 274 282 287 291 255 218 209 229 240 242 240 229 233 248 249 236 244 284 307 308 305 303 299 295 299 308 309 303 304 307
218 229 262 246 240 238 169 155 187 204 153 182 209 259 292 141 149 151 163 180 188 203 196 180 185 180 179 182 183 192 221 242 234 229 240 245 238 144 122 118 117 108 107 101 105 120 124 122 132 136 146 159 162 159 163 174 178 178 179 178 172 165 166 168 170 170 148 53 29 39 42 42 151 187 232 250 242 216 196 207 222 231 241 261 280 288 288 288 285 280 286 299 307 300 299 302 303
223 212 244 258 255 255 239 151 156 175 191 213 215 245 274 145 147 161 165 174 189 203 200 186 186 183 183 189 193 190 199 227 227 220 223 226 217 162 131 124 119 112 118 118 115 127 132 127 132 141 143 149 163 168 166 169 170 173 172 167 168 175 177 162 149 148 150 141 119 98 89 90 89 95 115 191 221 199 185 199 210 222 241 253 264 270 270 272 273 282 296 305 305 300 301 304 306
261 239 241 260 249 244 254 219 153 172 202 239 229 237 257 185 152 163 169 176 195 203 194 189 185 182 185 183 187 188 192 220 223 216 215 213 198 159 134 119 111 106 112 120 122 127 133 135 135 137 135 133 141 155 167 170 166 170 172 169 173 174 169 163 159 158 154 157 159 145 129 116 107 117 132 152 179 182 178 187 193 203 218 227 249 262 271 279 287 296 301 305 304 305 310 312 315
290 286 280 278 261 251 260 144 134 177 219 243 247 250 258 231 172 166 172 179 197 201 189 189 186 184 186 182 189 184 187 219 220 214 211 202 186 155 135 125 121 121 121 122 123 124 126 133 140 144 140 135 137 144 156 165 169 172 168 168 172 165 161 168 178 183 175 184 200 198 195 197 189 178 171 172 180 182 180 187 196 209 228 251 271 280 290 295 298 301 304 313 315 319 325 325 326
294 287 276 269 264 265 268 120 125 163 248 250 256 259 260 258 211 167 171 179 193 201 196 197 190 185 187 185 187 182 198 219 217 211 206 191 176 152 139 137 136 139 137 131 130 130 129 131 136 142 143 140 145 153 156 161 170 177 176 181 186 178 175 183 187 187 181 176 168 158 159 158 168 179 177 184 195 197 200 211 231 255 273 290 304 313 325 331 337 342 342 346 344 339 339 339 339
265 268 267 259 253 262 264 137 129 153 245 262 265 261 259 263 232 161 166 185 199 204 201 203 194 184 186 185 186 187 208 220 212 206 196 179 169 156 149 147 143 141 139 135 134 133 131 133 135 134 138 137 136 143 150 156 159 167 180 188 188 173 160 154 141 124 106 98 99 104 107 100 99 101 97 92 91 95 93 82 66 45 35 29 26 24 25 23 21 24 20 11 6 1 0 358 356
254 254 255 255 253 263 251 140 136 183 233 266 266 259 262 261 206 159 176 192 195 196 197 200 191 188 191 187 187 190 203 208 204 200 187 174 167 160 154 148 142 140 140 141 140 139 138 138 139 136 135 138 139 141 147 158 156 157 161 148 137 129 120 113 106 98 91 91 92 91 89 86 85 83 82 80 77 76 74 71 64 59 55 52 49 45 43 40 37 39 39 36 28 21 16 12 10
242 238 243 250 248 257 249 157 146 198 231 288 293 271 270 257 175 161 187 187 177 179 190 197 191 193 193 190 188 182 186 191 190 187 176 171 168 164 157 146 144 145 147 149 147 147 147 144 142 138 134 136 140 143 145 144 138 133 127 120 117 112 107 103 98 94 91 91 89 86 83 80 78 77 75 73 71 68 66 64 61 58 55 53 52 48 45 43 41 40 40 39 35 31 25 18 17
232 230 236 251 250 248 254 213 139 217 230 241 268 275 269 242 207 188 173 175 188 187 193 205 204 203 198 199 196 182 178 178 180 179 172 169 166 163 160 153 152 153 153 153 152 151 151 150 147 142 140 139 135 133 130 124 119 118 116 115 114 109 104 101 98 95 93 89 85 82 78 76 74 73 71 68 67 65 62 61 58 56 54 51 46 42 40 37 35 33 32 30 27 29 27 21 17
242 228 226 244 258 259 261 257 202 268 249 194 218 262 274 232 210 190 155 177 198 186 195 205 201 202 203 204 200 194 190 179 173 177 173 167 162 162 162 161 161 159 158 156 154 154 153 151 149 144 140 135 129 125 122 118 116 117 116 116 112 108 106 105 102 98 95 90 85 81 78 76 72 69 68 65 62 60 57 55 51 48 44 41 37 33 31 28 25 22 21 21 20 22 21 18 18
255 234 218 237 256 261 258 250 222 265 275 152 199 252 274 226 195 173 157 184 189 180 199 203 194 196 198 195 191 194 196 185 175 173 169 165 162 164 165 164 162 159 157 155 153 151 148 145 141 136 130 123 119 116 116 115 115 116 115 113 111 112 113 110 106 103 100 94 88 85 80 75 70 65 62 59 55 51 47 44 39 35 31 28 26 21 18 16 14 13 12 12 11 13 12 12 14
250 48 55 226 244 249 243 236 229 257 294 176 190 233 267 261 192 151 160 183 188 191 201 198 196 197 193 190 186 182 186 184 178 171 169 168 166 166 164 161 157 154 152 150 149 145 141 139 134 129 123 118 115 113 113 113 111 112 111 113 118 120 118 113 111 107 101 95 91 87 80 74 67 60 55 50 46 41 36 32 27 24 20 17 15 12 12 11 9 7 5 4 4 5 6 8 9
242 76 63 137 228 243 225 227 234 251 278 241 197 189 243 255 197 142 165 200 212 206 199 194 196 194 187 184 182 176 179 181 176 172 171 169 167 164 161 158 154 152 150 147 145 141 138 135 131 129 126 124 122 120 117 114 112 115 119 126 131 127 123 119 115 108 101 96 92 85 77 72 64 55 49 42 37 31 26 22 18 14 11 8 7 6 6 4 2 1 359 359 1 1 2 3 2
150 112 93 89 94 182 197 226 236 233 245 245 211 184 216 258 219 172 174 220 231 209 188 191 191 185 182 180 174 174 180 180 175 174 172 169 165 161 157 156 154 152 150 147 144 141 138 136 135 136 136 136 133 128 124 121 121 128 133 137 138 132 128 123 116 111 105 99 92 85 76 68 59 49 41 34 28 23 19 15 11 8 6 4 2 0 359 357 356 355 356 356 356 356 356 357 357
133 135 119 118 143 150 192 229 231 244 243 238 221 203 214 259 238 202 190 207 222 185 166 180 180 175 176 175 172 175 182 181 176 175 173 168 164 160 157 156 155 153 152 149 147 145 143 143 145 146 146 145 141 134 133 135 138 144 144 140 139 135 130 125 121 116 109 104 96 85 73 60 50 39 31 24 18 14 11 8 5 3 1 358 356 354 353 353 353 352 353 352 350 351 350 350 351
150 166 165 171 189 172 216 225 205 247 249 228 216 205 212 236 237 203 166 142 164 160 166 174 170 171 173 171 171 178 184 182 178 176 173 169 165 161 160 158 157 157 155 153 152 151 151 152 154 155 154 151 146 143 146 151 152 153 151 145 141 136 130 128 124 118 113 106 93 79 64 50 38 28 20 14 8 5 1 359 357 354 353 351 350 351 350 350 351 350 349 348 347 347 345 344 343
190 191 184 197 212 194 226 225 208 239 244 150 140 176 217 238 239 220 160 136 146 122 147 170 166 167 169 167 170 179 184 183 180 178 174 171 167 165 163 162 160 160 159 158 158 158 160 160 161 163 162 158 155 156 160 163 163 160 157 153 148 142 136 133 127 121 117 106 90 73 55 38 26 17 9 3 358 356 354 352 351 348 347 348 347 347 347 346 346 345 344 343 343 342 340 340 339
192 191 185 196 207 214 231 226 224 236 227 122 139 167 233 246 236 225 173 118 116 89 89 157 165 165 165 166 173 180 184 184 182 180 176 172 170 169 168 166 165 165 164 165 165 166 168 166 167 170 171 168 167 169 170 171 170 165 163 159 155 151 144 140 135 129 125 111 92 64 37 20 9 1 356 354 351 349 347 345 344 343 343 343 343 342 342 341 341 340 340 338 337 337 336 335 334
194 196 195 205 209 225 237 228 231 229 149 122 158 173 216 208 185 197 117 99 102 103 106 136 156 161 160 164 175 182 185 185 184 182 179 175 173 173 172 171 171 171 171 171 171 172 174 173 173 177 180 178 178 179 178 177 175 171 170 168 164 160 156 155 152 146 142 122 82 30 6 356 352 349 346 345 343 341 339 338 338 337 336 336 335 335 335 335 336 336 336 336 335 334 333 332 331
195 195 209 220 225 245 258 263 242 234 123 176 185 222 242 185 100 80 109 119 120 118 125 135 147 155 156 163 176 184 186 186 186 185 181 179 177 177 177 177 176 177 177 178 178 179 180 179 179 182 187 187 186 186 183 181 180 177 175 174 172 170 169 169 166 161 159 148 358 343 342 341 340 339 338 337 335 334 334 333 332 331 329 328 326 327 327 327 328 330 331 331 332 331 329 330 329
172 191 207 204 2 311 262 211 123 255 270 222 170 222 257 186 179 140 132 148 143 135 141 149 153 157 161 168 178 186 188 189 189 187 184 182 181 182 182 181 182 182 182 183 184 184 185 187 187 187 191 193 191 189 187 185 185 183 180 179 178 177 177 176 176 176 181 217 309 326 334 337 336 335 334 331 330 330 329 328 327 325 323 321 320 321 322 323 324 325 326 326 327 328 327 328 328
153 194 193 125 34 319 271 248 223 214 252 237 171 208 215 196 203 147 145 176 172 163 157 157 163 168 174 180 184 189 190 191 192 190 187 186 186 186 186 186 186 186 187 188 189 189 189 192 194 194 196 197 194 192 190 191 189 187 185 183 183 182 183 184 185 189 203 241 310 337 339 336 334 331 329 328 328 328 327 325 323 321 319 318 319 320 320 321 321 322 324 325 326 327 327 328 328
220 277 181 141 220 225 206 232 244 217 235 249 204 208 214 212 198 158 174 192 185 176 165 167 178 182 187 186 184 189 191 193 195 193 190 190 190 190 190 190 189 190 192 193 194 194 194 194 195 198 200 200 199 198 195 194 193 192 190 188 187 187 188 189 190 196 205 225 305 326 326 325 326 327 328 329 329 330 328 327 325 322 321 318 318 319 319 320 320 322 324 325 327 328 327 328 328
271 303 222 194 246 233 207 213 236 226 231 250 224 199 216 222 193 172 183 192 181 171 172 186 191 188 190 187 184 190 193 195 196 195 194 194 193 194 194 192 193 194 196 197 198 198 197 198 198 199 200 200 201 201 199 197 196 196 195 193 193 192 191 192 194 198 209 237 289 308 314 320 325 328 331 333 334 334 333 332 330 327 324 321 320 320 319 320 321 323 324 326 327 327 327 328 328
195 209 203 195 186 233 255 230 227 237 239 245 249 247 232 200 178 175 183 189 177 169 177 193 194 191 191 189 188 192 196 198 199 198 198 197 197 197 196 195 197 199 199 200 201 200 200 201 201 201 202 203 203 202 201 200 199 199 199 198 197 196 195 198 202 207 222 253 285 304 315 324 330 333 336 337 337 337 335 334 332 329 326 324 322 321 321 321 322 323 323 324 325 325 326 327 327
201 204 203 202 192 182 224 223 203 214 247 245 264 271 261 86 53 151 170 179 173 171 179 185 189 191 191 191 193 196 199 201 201 201 201 200 200 199 198 199 201 202 203 203 203 203 204 204 203 203 204 205 206 205 204 203 203 202 202 201 200 199 200 204 208 215 229 256 287 311 323 331 335 337 338 338 336 335 334 331 329 327 325 323 321 321 320 320 321 321 321 321 322 323 323 324 324